This demonstration page uses our WeatherBlox Daily Observations layout. Learn more.

Left ArrowRight Arrow

38.20091, -84.87328

Hourly Observations for July 4, 2018

Temp ( °F °C ) Dew Point ( °F °C ) Humidity (%) Winds ( mph kmh ) Pressure ( in mb ) Visibility ( mi km ) Precip ( " mm )
12:53 am 00:53 Clear 75 23.9 71 21.7 88 88 N 3 6 30.18 1022 10 16 0.00 0.00
1:53 am 01:53 Clear 74 23.3 70 21.1 88 88 Calm 30.18 1022 10 16 0.00 0.00
2:53 am 02:53 Clear 73 22.8 70 21.1 90 90 Calm 30.17 1022 10 16 0.00 0.00
3:53 am 03:53 Clear 72 22.2 69 20.6 91 91 Calm 30.17 1022 10 16 0.00 0.00
4:53 am 04:53 Clear 71 21.7 68 20 90 90 Calm 30.18 1022 10 16 0.00 0.00
5:53 am 05:53 Clear 71 21.7 68 20 90 90 Calm 30.19 1022 9 14 0.00 0.00
6:53 am 06:53 Sunny 72 22.2 69 20.6 91 91 Calm 30.20 1023 10 16 0.00 0.00
7:53 am 07:53 Sunny 76 24.4 70 21.1 82 82 Calm 30.22 1023 10 16 0.00 0.00
8:53 am 08:53 Sunny 81 27.2 72 22.2 74 74 ENE 3 6 30.22 1023 10 16 0.00 0.00
9:53 am 09:53 Sunny 85 29.4 74 23.3 70 70 Calm 30.22 1023 10 16 0.00 0.00
10:53 am 10:53 Sunny 89 31.7 74 23.3 61 61 Calm 30.22 1024 10 16 0.00 0.00
11:53 am 11:53 Sunny 92 33.3 74 23.3 56 56 VRB 5 7 30.22 1024 10 16 0.00 0.00
12:53 pm 12:53 Sunny 94 34.4 76 24.4 56 56 VRB 6 9 30.22 1024 10 16 0.00 0.00
1:53 pm 13:53 Mostly Cloudy 92 33.3 72 22.2 52 52 NE 3 6 30.21 1023 10 16 0.00 0.00
2:53 pm 14:53 Cloudy 94 34.4 73 22.8 51 51 N 5 7 30.20 1023 10 16 0.00 0.00
3:53 pm 15:53 Mostly Sunny 95 35 72 22.2 47 47 NNW 5 7 30.19 1022 10 16 0.00 0.00
4:53 pm 16:53 Mostly Sunny 96 35.6 71 21.7 44 44 N 6 9 30.17 1022 10 16 0.00 0.00
5:53 pm 17:53 Mostly Sunny 96 35.6 70 21.1 43 43 N 5 7 30.16 1021 10 16 0.00 0.00
6:53 pm 18:53 Sunny 95 35 71 21.7 46 46 N 6 9 30.16 1021 10 16 0.00 0.00
7:53 pm 19:53 Sunny 93 33.9 73 22.8 52 52 NNE 5 7 30.17 1022 10 16 0.00 0.00
8:53 pm 20:53 Sunny 91 32.8 73 22.8 56 56 Calm 30.18 1022 10 16 0.00 0.00
9:53 pm 21:53 Clear 85 29.4 75 23.9 72 72 Calm 30.19 1022 10 16 0.00 0.00
10:53 pm 22:53 Clear 81 27.2 75 23.9 82 82 Calm 30.21 1023 10 16 0.00 0.00
11:53 pm 23:53 Clear 82 27.8 75 23.9 79 79 Calm 30.20 1023 10 16 0.00 0.00

Powered by AerisWeather